Probability
61 32 16 10 3 0 0 0 0 0 0 0 0 0 0 0 0 0 0 0 3 10 35 42 52 45 42 42 42 39 39 39 42 42 39 35 29 29 29 29 23 29 29 32 32 29 32 35 35
45 29 16 0 0 0 0 0 0 0 0 0 0 0 0 0 0 0 0 3 3 6 19 29 42 39 39 39 32 32 29 29 29 29 26 19 23 23 19 19 16 16 16 19 26 32 29 29 29
35 35 10 0 0 0 0 0 0 0 0 0 0 0 3 3 3 0 0 3 3 6 13 29 32 35 35 29 29 23 23 19 19 19 16 13 16 13 16 16 16 16 19 19 19 23 23 26 26
13 6 0 0 0 0 0 0 0 0 0 0 0 0 0 0 0 0 0 3 0 6 13 23 29 29 23 19 16 19 19 16 19 13 10 10 13 13 13 10 10 10 10 13 16 19 16 19 16
3 3 0 0 0 0 0 0 0 0 0 0 0 0 3 0 0 0 0 0 0 3 10 23 23 19 19 16 16 16 13 16 13 10 10 13 16 13 10 13 13 13 13 16 16 19 16 16 19
3 0 0 0 0 0 0 0 0 0 0 0 0 0 0 0 0 0 0 0 0 0 6 13 19 19 16 16 16 13 13 6 6 6 10 10 10 13 10 10 13 13 13 13 16 19 23 26 26
0 0 0 0 0 0 0 0 0 0 0 0 0 0 0 0 0 0 0 0 0 0 3 3 10 16 19 13 13 10 3 3 3 0 6 6 10 10 10 10 10 10 13 13 16 16 16 23 29
0 0 0 0 0 0 0 0 0 0 0 0 0 0 0 0 0 0 0 0 0 0 0 0 0 0 0 3 10 6 3 0 3 3 3 3 0 0 3 3 6 6 13 16 23 23 26 19 19
0 0 0 0 0 0 0 0 0 0 0 0 0 0 0 0 0 0 0 0 0 0 0 0 0 0 0 0 0 0 3 0 0 0 0 0 0 0 0 0 3 6 10 10 16 23 23 26 13
0 0 0 0 0 0 0 0 0 0 0 0 0 0 0 0 0 0 0 0 0 0 0 0 0 0 0 0 0 0 0 0 0 0 0 0 0 0 0 0 0 0 3 3 10 16 6 3 0
0 0 0 0 0 0 0 0 0 0 0 0 0 0 0 0 0 0 0 0 0 0 0 0 0 0 0 0 0 0 0 0 0 0 0 0 0 0 0 0 0 0 0 0 0 0 0 0 0
0 0 0 0 0 0 0 0 0 0 0 0 0 0 0 0 0 0 0 0 0 0 0 0 0 0 0 0 0 0 0 0 0 0 0 0 0 0 0 0 0 0 0 0 0 0 0 0 0
0 0 0 0 0 0 0 0 3 0 0 0 0 0 0 0 0 0 0 0 0 0 0 0 0 0 0 0 0 0 0 0 0 0 0 0 0 0 0 0 0 0 0 0 0 0 0 0 0
0 0 0 0 0 0 0 0 3 3 0 0 0 0 0 0 0 0 0 0 0 0 0 0 0 0 0 0 0 0 0 0 0 0 0 0 0 0 0 0 0 0 0 0 0 0 0 0 0
0 0 0 0 0 0 0 0 0 0 0 0 0 0 0 0 0 0 0 0 0 0 0 0 0 0 0 0 0 0 0 0 0 0 0 0 0 0 0 0 0 0 0 0 0 0 0 0 0
0 0 0 0 0 0 0 0 0 0 0 0 0 0 0 0 0 0 0 0 0 0 0 0 0 0 0 0 0 0 0 0 0 0 0 0 0 0 0 0 0 0 0 0 0 0 0 0 0
0 0 0 0 0 0 0 0 0 0 0 0 0 0 0 0 0 0 0 0 0 0 0 0 0 0 0 0 0 0 0 0 0 0 0 0 0 0 0 0 0 0 0 0 0 0 0 0 0
0 0 0 0 0 0 0 0 0 0 0 0 0 0 0 0 0 0 0 0 0 0 0 0 0 0 0 0 0 0 0 0 0 0 0 0 0 0 0 0 0 0 0 0 0 0 0 0 0
0 0 0 0 0 0 0 0 0 0 0 0 0 0 0 0 0 0 0 0 0 0 0 0 0 0 0 0 0 0 0 0 0 0 0 0 0 0 0 0 0 0 0 0 0 0 0 0 0
0 0 0 0 0 0 0 0 0 0 0 0 0 0 0 0 0 0 0 0 0 0 0 0 0 0 0 0 0 0 0 0 0 0 0 0 0 0 0 0 0 0 0 0 0 0 0 0 0
0 0 0 0 0 0 0 0 0 0 0 0 0 0 0 0 0 0 0 0 0 0 0 0 0 0 0 0 0 0 0 0 0 0 0 0 0 0 0 0 0 0 0 0 0 0 0 0 0
0 0 0 0 0 0 0 0 0 0 0 0 0 0 0 0 0 0 0 0 0 0 0 0 0 0 0 0 0 0 0 0 0 0 0 0 0 0 0 0 0 0 0 0 0 0 0 0 0
0 0 0 0 0 0 0 0 0 0 0 0 0 0 0 0 0 0 0 0 0 0 0 0 0 0 0 0 0 0 0 0 0 0 0 0 0 0 0 0 0 0 0 0 0 0 0 0 0
0 0 0 0 0 0 0 0 0 0 0 0 0 0 0 0 0 0 0 0 0 0 0 0 0 0 0 0 0 0 0 0 0 0 0 0 0 0 0 0 0 0 0 0 0 0 0 0 0
0 0 0 0 0 0 0 0 0 0 0 0 0 0 0 0 0 0 0 0 0 0 0 0 0 0 0 0 0 0 0 0 0 0 0 0 0 0 0 0 0 0 0 0 0 0 0 0 0
0 0 0 0 0 0 0 0 0 0 0 0 0 0 0 0 0 0 0 0 0 0 0 0 0 0 0 0 0 0 0 0 0 0 0 0 0 0 0 0 0 0 0 0 0 0 0 0 0
0 0 0 0 0 0 0 0 0 0 0 0 0 0 0 0 0 0 0 0 0 0 0 0 0 0 0 0 0 0 0 0 0 0 0 0 0 0 0 0 0 0 0 0 0 0 0 0 0
0 0 0 0 0 0 0 0 0 0 0 0 0 0 0 0 0 0 0 0 0 0 0 0 0 0 0 0 0 0 0 0 0 0 0 0 0 0 0 0 0 0 0 0 0 0 0 0 0
0 0 0 0 0 0 0 0 0 0 0 0 0 0 0 0 0 0 0 0 0 0 0 0 0 0 0 0 0 0 0 0 0 0 0 0 0 0 0 0 0 0 0 0 0 0 0 0 0
0 0 0 0 0 0 0 0 0 0 0 0 0 0 0 0 0 0 0 0 0 0 0 0 0 0 0 0 0 0 0 0 0 0 0 0 0 0 0 0 0 0 0 0 0 0 0 0 0
Height
5896 5897 5897 5898 5900 5899 5899 5900 5899 5900 5900 5899 5899 5900 5900 5900 5901 5902 5900 5898 5898 5897 5897 5896 5895 5894 5893 5892 5891 5889 5888 5886 5885 5883 5882 5880 5879 5877 5876 5874 5873 5872 5871 5870 5869 5869 5868 5869 5869
5895 5896 5897 5898 5898 5898 5899 5899 5899 5900 5900 5899 5899 5900 5900 5900 5900 5899 5899 5898 5898 5897 5896 5896 5895 5894 5893 5892 5890 5889 5887 5886 5885 5883 5881 5880 5878 5876 5875 5873 5872 5870 5869 5868 5868 5867 5867 5867 5867
5894 5895 5897 5897 5897 5898 5898 5898 5899 5899 5899 5899 5900 5900 5900 5900 5899 5899 5899 5898 5898 5897 5897 5896 5895 5894 5893 5891 5890 5889 5887 5886 5884 5883 5881 5879 5877 5876 5874 5872 5871 5869 5868 5867 5866 5866 5865 5865 5866
5893 5895 5896 5896 5896 5897 5897 5897 5898 5898 5898 5899 5899 5899 5899 5900 5899 5899 5899 5898 5898 5897 5897 5896 5895 5893 5892 5891 5890 5889 5887 5885 5884 5882 5880 5878 5877 5875 5873 5871 5869 5868 5866 5865 5864 5864 5864 5864 5864
5891 5893 5894 5894 5895 5895 5895 5896 5897 5897 5897 5898 5899 5899 5899 5899 5899 5898 5898 5898 5898 5897 5896 5896 5895 5893 5892 5891 5890 5888 5887 5885 5883 5882 5880 5878 5876 5874 5872 5870 5868 5866 5865 5863 5862 5862 5861 5861 5862
5890 5891 5892 5892 5893 5894 5894 5894 5895 5896 5896 5897 5898 5899 5898 5899 5898 5898 5898 5898 5897 5897 5896 5895 5894 5893 5892 5891 5890 5888 5886 5885 5883 5881 5879 5877 5875 5873 5871 5869 5867 5865 5863 5861 5860 5860 5859 5859 5860
5888 5889 5889 5890 5891 5892 5893 5893 5894 5894 5895 5896 5897 5898 5898 5898 5898 5898 5898 5897 5897 5897 5896 5895 5894 5894 5892 5891 5890 5888 5886 5885 5883 5881 5879 5877 5875 5872 5870 5868 5865 5863 5861 5859 5858 5858 5857 5857 5857
5885 5887 5887 5888 5889 5891 5891 5892 5893 5893 5894 5895 5896 5897 5898 5898 5898 5897 5898 5897 5897 5897 5896 5896 5895 5894 5893 5891 5890 5888 5886 5885 5883 5881 5879 5877 5874 5872 5869 5867 5864 5862 5860 5858 5856 5855 5855 5855 5855
5882 5885 5885 5886 5887 5889 5890 5891 5892 5892 5893 5894 5895 5896 5897 5897 5897 5897 5897 5897 5897 5897 5896 5896 5895 5894 5893 5892 5890 5889 5887 5885 5883 5881 5879 5876 5874 5871 5869 5866 5863 5861 5858 5856 5855 5854 5853 5853 5853
5879 5881 5882 5884 5885 5887 5888 5889 5890 5891 5892 5893 5894 5895 5896 5896 5897 5897 5897 5897 5897 5897 5896 5896 5895 5894 5893 5892 5891 5889 5887 5886 5884 5881 5879 5876 5874 5871 5868 5866 5863 5860 5857 5855 5853 5852 5852 5852 5852
5876 5878 5880 5881 5882 5884 5886 5887 5888 5889 5891 5892 5893 5894 5895 5896 5896 5896 5897 5897 5897 5897 5897 5896 5895 5894 5894 5892 5891 5889 5888 5886 5884 5882 5879 5877 5874 5871 5868 5865 5862 5859 5857 5855 5853 5851 5851 5851 5851
5874 5876 5877 5879 5880 5882 5884 5885 5886 5888 5890 5891 5892 5893 5894 5895 5896 5896 5897 5897 5897 5897 5897 5896 5896 5895 5894 5893 5891 5890 5888 5887 5884 5882 5879 5877 5874 5871 5868 5865 5862 5859 5856 5854 5852 5851 5850 5850 5850
5871 5873 5875 5877 5879 5880 5882 5883 5885 5886 5888 5889 5891 5892 5893 5894 5895 5896 5896 5896 5896 5896 5896 5896 5896 5895 5894 5893 5892 5890 5889 5887 5885 5882 5880 5877 5874 5872 5869 5866 5862 5859 5857 5854 5853 5851 5850 5850 5850
5869 5870 5872 5874 5876 5877 5880 5882 5884 5885 5886 5888 5890 5891 5892 5893 5894 5895 5895 5896 5896 5896 5896 5896 5896 5895 5894 5894 5892 5891 5889 5888 5885 5883 5880 5878 5875 5872 5869 5867 5863 5860 5858 5855 5853 5852 5851 5850 5851
5866 5868 5870 5872 5873 5875 5878 5880 5882 5883 5885 5887 5888 5890 5891 5892 5893 5894 5895 5895 5896 5896 5896 5896 5896 5896 5895 5894 5893 5892 5890 5888 5886 5884 5881 5878 5876 5873 5870 5868 5865 5862 5859 5857 5855 5853 5852 5851 5851
5863 5866 5868 5870 5871 5873 5877 5879 5880 5882 5884 5885 5887 5888 5889 5891 5892 5893 5894 5895 5895 5896 5896 5896 5896 5896 5895 5894 5894 5892 5891 5889 5887 5885 5882 5879 5877 5874 5872 5869 5866 5864 5861 5859 5857 5855 5854 5853 5853
5861 5863 5865 5868 5870 5872 5875 5877 5879 5881 5883 5884 5885 5886 5888 5889 5891 5892 5893 5894 5895 5895 5896 5896 5896 5896 5895 5895 5894 5893 5891 5890 5888 5886 5883 5881 5878 5876 5873 5871 5868 5866 5863 5861 5859 5857 5856 5855 5854
5859 5861 5863 5866 5868 5870 5872 5875 5877 5879 5881 5882 5883 5885 5886 5888 5890 5891 5892 5893 5894 5895 5896 5896 5896 5895 5895 5895 5894 5893 5892 5891 5889 5887 5884 5882 5880 5877 5875 5873 5870 5868 5865 5863 5861 5859 5858 5857 5857
5855 5858 5861 5864 5866 5868 5870 5873 5875 5877 5879 5881 5882 5884 5885 5887 5889 5890 5891 5892 5894 5894 5895 5896 5896 5896 5895 5895 5895 5894 5893 5892 5890 5888 5886 5884 5882 5879 5877 5875 5872 5870 5868 5866 5864 5862 5861 5860 5859
5853 5856 5859 5862 5864 5866 5868 5871 5873 5875 5877 5879 5881 5882 5884 5886 5887 5889 5890 5891 5893 5894 5895 5895 5895 5895 5895 5895 5895 5894 5893 5892 5891 5889 5887 5885 5883 5881 5879 5877 5875 5872 5870 5868 5867 5865 5863 5863 5862
5852 5854 5857 5860 5862 5864 5866 5868 5871 5873 5875 5877 5879 5881 5883 5885 5886 5888 5889 5891 5892 5893 5894 5895 5895 5895 5895 5895 5895 5895 5894 5893 5892 5890 5889 5887 5885 5883 5881 5879 5877 5875 5873 5871 5869 5867 5866 5865 5864
5850 5853 5855 5857 5859 5862 5865 5866 5869 5871 5874 5876 5878 5880 5882 5883 5885 5886 5888 5890 5891 5892 5894 5894 5895 5895 5895 5895 5895 5895 5894 5894 5893 5891 5890 5888 5887 5885 5883 5881 5879 5877 5875 5873 5871 5869 5868 5866 5866
5849 5851 5853 5855 5857 5860 5862 5864 5867 5869 5872 5874 5876 5878 5880 5882 5883 5885 5887 5888 5890 5891 5893 5894 5894 5895 5895 5895 5895 5895 5895 5894 5893 5892 5891 5890 5888 5886 5885 5883 5881 5879 5877 5875 5873 5871 5869 5868 5867
5847 5850 5851 5853 5856 5859 5860 5862 5865 5867 5870 5873 5875 5877 5879 5880 5882 5883 5885 5887 5889 5890 5891 5893 5894 5894 5894 5895 5895 5895 5894 5894 5894 5893 5892 5891 5889 5888 5886 5884 5883 5881 5879 5877 5875 5873 5871 5869 5868
5846 5849 5850 5852 5854 5856 5858 5860 5864 5866 5868 5870 5873 5875 5876 5878 5880 5882 5884 5886 5887 5889 5890 5891 5892 5893 5894 5894 5894 5894 5894 5894 5894 5893 5892 5891 5890 5889 5887 5886 5884 5882 5880 5878 5876 5874 5872 5870 5869
5843 5847 5850 5851 5853 5854 5856 5858 5862 5863 5865 5868 5870 5872 5874 5876 5878 5880 5882 5884 5886 5887 5889 5890 5891 5892 5893 5893 5894 5894 5894 5894 5893 5893 5892 5891 5890 5889 5888 5887 5885 5884 5882 5880 5878 5875 5873 5872 5870
5842 5845 5847 5849 5850 5852 5854 5857 5859 5861 5863 5865 5868 5870 5872 5875 5876 5878 5880 5882 5884 5885 5887 5888 5890 5891 5892 5892 5893 5893 5893 5893 5893 5893 5892 5892 5891 5890 5889 5887 5886 5885 5883 5881 5879 5877 5875 5873 5872
5841 5843 5845 5847 5848 5850 5852 5854 5857 5858 5860 5862 5865 5867 5870 5872 5874 5876 5878 5880 5882 5883 5885 5886 5888 5889 5890 5891 5892 5892 5892 5892 5892 5892 5892 5891 5891 5890 5889 5888 5886 5885 5883 5882 5880 5878 5876 5875 5874
5840 5842 5843 5845 5846 5848 5850 5854 5855 5856 5858 5860 5862 5864 5867 5869 5871 5873 5875 5877 5879 5881 5883 5884 5886 5887 5889 5890 5890 5891 5891 5891 5891 5891 5891 5891 5890 5889 5888 5887 5886 5885 5884 5882 5881 5879 5877 5876 5875
5837 5839 5841 5843 5844 5846 5848 5853 5852 5854 5855 5857 5859 5861 5864 5866 5869 5871 5873 5875 5877 5879 5881 5882 5884 5885 5887 5888 5888 5889 5889 5890 5890 5890 5890 5890 5889 5888 5887 5886 5885 5884 5883 5882 5880 5879 5877 5876 5874
Wind_Speed
6 6 5 5 4 3 3 2 1 0 1 1 0 0 1 2 2 2 3 3 4 5 5 5 4 5 5 5 5 5 6 6 6 6 6 7 7 7 7 7 7 7 7 6 6 7 7 8 8
7 7 6 6 5 4 4 3 2 1 1 0 0 0 1 2 2 2 3 3 4 4 5 5 5 5 5 5 6 6 6 6 7 7 7 7 7 7 8 8 8 7 7 6 6 6 7 7 7
8 8 8 7 7 6 5 4 2 2 2 1 1 0 0 1 1 1 1 2 3 4 4 4 4 5 5 5 6 6 6 6 7 7 7 7 8 8 8 8 8 8 7 7 7 7 7 7 7
9 9 9 9 8 7 6 5 4 3 3 2 1 1 1 1 1 1 1 1 2 3 3 3 4 4 5 6 6 7 7 7 7 8 8 8 8 8 8 8 8 8 7 7 7 8 7 7 8
10 10 10 10 9 9 7 6 5 4 4 3 2 1 1 1 1 1 1 1 2 3 3 3 4 5 5 6 6 7 7 7 8 8 8 8 9 8 8 8 8 8 8 8 8 8 8 8 8
11 11 11 11 10 10 9 7 6 5 4 4 4 3 1 0 0 1 1 1 2 3 3 4 4 5 5 6 7 7 8 8 8 9 9 9 9 9 9 9 9 8 8 8 7 7 7 8 8
13 13 12 12 11 10 9 7 6 5 5 5 5 4 3 2 1 1 2 2 2 2 3 4 4 5 5 6 7 8 8 9 9 9 9 9 10 10 10 10 10 9 8 7 6 6 7 7 7
14 14 14 13 12 10 8 8 7 6 6 6 5 4 4 3 3 2 2 1 1 2 3 3 3 4 5 6 7 8 8 9 9 10 10 11 11 11 11 11 10 9 8 6 5 5 5 6 7
15 13 13 13 13 11 9 8 8 8 7 6 6 5 4 4 4 3 2 1 1 2 2 2 3 4 5 6 7 8 9 9 10 10 11 11 12 12 12 11 11 10 9 7 5 3 4 5 6
16 15 14 13 13 11 10 9 9 9 8 8 7 6 5 4 5 4 3 2 1 1 1 2 3 4 5 6 7 8 9 9 10 11 11 12 12 12 12 12 12 11 10 8 6 3 2 3 4
16 16 15 15 14 12 10 10 9 9 9 9 7 7 5 5 5 4 4 3 2 1 0 1 2 3 5 6 7 8 9 10 10 11 12 12 12 12 12 12 12 12 11 9 7 4 2 1 3
16 16 15 14 13 12 10 10 10 9 9 9 8 7 6 6 6 6 5 4 3 2 1 1 2 3 5 6 7 8 9 10 10 11 12 12 13 13 13 14 13 12 11 10 8 5 3 1 2
15 15 15 14 12 12 11 10 10 10 9 10 9 9 8 6 7 7 6 5 3 2 2 2 3 4 5 6 7 8 9 10 10 11 12 13 13 13 14 14 14 14 12 11 9 7 4 3 2
15 15 14 13 12 12 11 11 10 10 10 10 9 9 8 8 7 7 7 5 3 2 2 2 3 4 5 6 7 8 9 10 11 12 13 13 14 14 15 15 15 14 13 12 10 8 6 5 3
16 15 15 14 12 11 11 11 10 11 11 10 9 9 9 9 8 7 6 5 3 2 2 2 2 3 4 5 6 7 8 10 11 12 13 13 14 15 15 15 16 15 14 13 11 10 8 6 5
17 16 15 14 14 12 12 11 10 11 11 10 9 9 9 9 8 7 6 4 3 3 3 2 2 3 4 4 5 7 8 10 11 12 12 13 14 15 15 16 16 16 16 15 13 11 10 8 7
16 16 15 15 14 13 12 12 12 12 12 11 9 9 9 9 8 7 6 5 4 3 3 2 2 3 3 4 5 6 8 9 10 12 12 13 14 15 16 16 16 16 16 15 14 13 12 11 9
16 16 16 15 14 13 13 13 12 12 12 11 10 9 9 9 8 8 7 6 5 4 3 3 2 3 3 3 4 5 7 8 10 12 13 13 13 14 15 16 16 16 16 15 14 14 13 12 11
17 16 15 15 13 13 13 14 13 12 12 11 10 9 9 9 8 9 7 7 6 5 4 3 2 2 2 3 4 5 6 8 9 11 12 13 13 14 15 15 16 16 16 15 14 14 14 13 12
16 16 15 15 14 14 14 14 14 13 12 11 10 10 10 10 9 9 8 8 7 6 5 3 2 2 2 2 3 4 6 7 8 10 11 12 13 14 14 15 15 15 15 15 14 14 13 13 12
15 15 15 15 14 14 14 14 14 14 12 11 11 11 10 9 10 10 9 9 8 7 6 4 3 3 3 2 3 4 5 6 7 8 9 10 11 13 14 14 15 15 15 15 14 13 13 12 12
16 15 15 15 14 14 15 15 15 15 13 13 12 12 10 10 10 10 10 10 9 8 7 5 4 3 3 3 2 3 3 4 6 7 8 9 10 12 13 14 14 14 15 14 13 13 12 12 11
14 15 15 16 14 14 15 16 15 15 14 13 12 13 11 11 10 10 10 10 9 9 8 7 5 4 4 3 2 2 2 3 4 6 6 8 9 10 11 12 13 13 14 14 13 13 12 11 10
15 14 15 15 15 14 14 15 14 13 12 12 12 12 12 11 10 10 10 10 10 9 9 7 6 5 5 3 2 2 1 2 3 4 5 6 7 8 10 11 12 13 13 13 13 12 12 11 10
15 14 14 15 15 13 13 14 12 12 11 12 13 12 12 11 11 11 11 10 10 9 8 7 7 6 5 4 3 2 1 1 2 3 4 5 6 7 8 9 10 11 12 13 13 12 12 11 10
14 14 14 13 13 13 13 13 12 11 12 12 13 12 12 12 11 12 11 11 11 10 9 8 7 7 6 5 4 3 1 1 1 2 3 4 5 6 7 8 9 9 11 11 12 12 11 10 10
14 14 13 13 12 13 13 12 11 11 12 13 12 12 12 12 11 11 12 12 11 10 9 9 8 8 7 6 5 4 2 1 0 1 2 3 4 5 6 7 8 8 9 10 11 11 10 9 8
14 15 14 12 12 12 12 11 11 11 12 12 13 13 12 13 12 12 13 12 12 11 10 10 10 9 8 7 6 5 4 2 1 1 1 2 2 3 4 5 6 7 8 8 9 9 9 8 8
13 14 13 13 12 12 11 11 10 11 11 12 12 13 13 13 13 13 13 13 13 12 11 10 10 10 9 8 7 6 5 4 3 2 2 2 2 3 3 4 5 6 6 6 7 7 7 7 7
13 13 12 12 11 12 12 11 11 11 11 11 12 13 14 13 14 14 14 13 13 13 12 11 10 10 10 9 8 7 6 6 5 4 4 3 3 3 4 4 5 6 6 6 7 7 7 7 7
Wind_Direction
207 205 208 213 218 220 228 239 258 115 105 104 159 162 54 73 59 58 65 61 50 45 42 36 37 26 17 12 1 354 352 351 347 342 337 334 329 326 321 315 309 303 298 290 281 272 264 256 247
214 214 220 226 228 229 231 240 238 221 191 220 300 332 83 92 76 74 66 61 53 46 39 36 30 23 16 9 1 357 352 350 349 346 342 342 338 332 324 319 313 306 298 292 283 274 266 257 246
222 222 226 231 233 234 231 231 230 233 213 216 233 246 179 118 117 107 83 61 52 49 35 26 19 14 11 8 1 356 354 354 352 349 344 341 338 334 328 323 316 307 299 293 285 275 266 257 246
225 228 230 232 234 236 241 240 232 234 227 234 224 202 151 166 183 164 128 81 45 35 28 20 12 6 7 7 2 357 357 358 356 353 348 346 343 339 334 325 320 312 300 291 286 276 265 256 248
227 230 234 237 234 236 240 240 236 232 234 231 225 206 101 101 186 136 106 74 46 28 18 15 6 3 8 11 8 5 4 4 2 357 352 348 345 343 340 333 327 319 308 296 289 277 264 254 245
229 231 235 237 234 238 242 238 230 225 226 220 220 218 199 181 200 128 111 84 45 25 18 14 7 11 16 18 14 10 8 6 6 3 358 355 356 353 349 342 336 331 319 302 288 279 266 253 242
231 231 233 233 234 236 235 225 222 226 220 214 208 202 206 209 205 164 131 89 44 15 5 5 7 16 19 19 14 12 13 12 11 9 6 2 359 355 353 351 346 339 330 314 293 278 265 252 244
231 233 232 231 233 232 234 225 218 224 222 212 203 198 193 200 205 190 166 109 10 351 349 4 21 26 23 20 20 21 19 17 14 12 11 9 5 2 1 356 352 348 343 330 309 286 266 251 243
232 232 229 231 234 236 235 229 221 220 221 211 204 199 189 188 196 207 199 187 324 350 359 23 36 39 33 27 26 26 24 20 17 15 12 10 8 6 5 3 0 359 356 348 334 305 272 249 239
232 232 231 233 234 232 225 225 220 214 210 204 198 190 183 187 198 208 207 213 284 344 29 27 43 47 36 30 28 28 26 21 19 18 14 12 10 10 11 9 8 7 6 2 353 339 292 241 225
230 229 232 235 231 230 221 219 221 210 204 200 194 190 194 195 192 194 202 208 225 221 119 75 67 54 38 32 31 31 27 24 23 21 18 16 15 17 17 15 14 13 11 9 6 2 343 246 216
230 231 231 227 227 226 220 213 215 209 206 198 192 191 198 203 202 203 200 205 205 194 146 99 70 57 44 37 35 33 30 29 26 24 22 21 20 21 19 19 18 16 16 16 18 19 25 123 177
229 230 229 228 228 223 219 211 209 210 205 197 195 196 196 202 203 199 198 199 197 178 148 111 81 62 51 42 38 36 36 33 29 28 26 24 24 24 23 23 22 22 24 28 32 34 44 79 125
226 225 221 221 218 213 211 208 208 203 193 192 194 194 198 200 199 198 199 200 191 178 140 103 78 69 58 49 42 40 39 36 33 31 28 29 30 29 27 27 26 26 30 34 37 43 57 77 96
220 219 220 219 219 208 204 208 207 198 191 191 193 194 197 198 197 195 190 192 181 156 136 121 96 80 63 53 46 44 42 38 36 32 31 33 32 33 31 31 31 31 34 38 40 48 60 73 86
218 219 219 217 217 212 207 210 209 195 194 194 196 198 198 195 195 197 196 189 172 157 151 140 111 90 71 56 49 47 44 41 39 35 34 34 33 34 33 33 34 35 38 41 46 51 61 71 81
216 218 219 219 216 211 210 209 209 203 199 199 199 199 201 199 199 204 199 188 177 168 159 149 124 101 78 60 54 50 46 43 41 39 38 36 35 35 35 35 36 39 41 44 49 55 64 70 77
215 215 216 217 215 213 213 210 208 207 207 202 200 202 207 207 207 206 198 195 188 176 171 160 140 113 88 68 61 55 50 47 43 41 40 38 37 37 38 37 38 40 43 47 53 58 66 69 73
212 210 213 214 211 213 211 210 208 208 206 203 201 201 202 202 209 202 197 197 187 182 182 168 152 132 109 82 69 62 55 51 47 43 40 38 38 40 40 39 40 42 45 49 55 60 65 68 71
208 208 209 210 210 213 214 213 209 208 206 206 206 201 198 199 199 195 196 193 188 188 185 173 166 154 134 104 85 74 61 54 49 43 40 40 41 40 40 41 42 43 46 50 55 60 65 67 68
206 203 205 209 210 212 214 211 210 210 209 210 206 202 195 194 197 196 196 196 193 191 190 186 180 167 147 120 101 84 67 56 49 44 42 43 41 41 41 42 43 44 47 49 52 56 60 62 63
204 205 208 209 209 209 211 212 206 209 208 205 200 197 196 200 198 197 196 193 192 193 194 193 190 178 160 140 116 97 75 56 49 47 46 44 41 41 42 42 42 42 45 47 50 53 56 58 60
204 209 212 212 213 215 214 215 210 207 204 205 204 199 197 198 197 196 196 195 195 196 196 195 197 190 177 159 141 120 83 59 55 51 46 43 41 40 40 40 40 41 42 45 47 50 53 54 56
204 209 210 212 214 219 219 220 210 203 199 202 204 203 202 199 196 196 196 198 200 201 200 197 197 192 188 178 167 149 103 70 60 52 44 41 39 40 39 39 38 39 39 40 41 44 47 49 53
204 207 211 213 216 221 220 219 213 204 199 202 204 206 205 202 200 199 198 200 201 203 204 202 200 199 199 195 189 179 148 86 59 52 45 42 40 38 37 35 34 34 35 36 36 38 42 46 51
205 208 212 216 218 221 220 217 212 209 207 207 207 207 207 207 204 201 203 204 203 206 207 209 206 203 203 199 196 193 172 125 68 56 47 41 36 32 33 32 31 31 32 33 33 35 38 44 48
208 209 214 217 219 221 218 215 212 208 212 211 210 210 210 206 207 208 206 206 206 207 210 212 210 207 206 204 201 200 195 189 168 53 38 33 31 27 28 29 28 25 26 28 29 33 34 37 43
210 213 215 218 219 221 220 214 211 215 214 213 210 209 209 210 214 215 211 211 212 212 216 215 213 211 211 211 211 211 208 205 213 258 322 353 10 14 14 18 20 18 20 23 29 29 30 34 38
213 217 218 217 219 221 216 209 212 212 212 208 206 208 207 212 216 217 216 215 213 212 215 215 215 215 216 220 223 222 223 226 235 252 282 300 318 335 347 355 0 2 5 8 9 9 10 12 13
213 213 216 216 218 216 212 207 211 212 215 214 212 207 206 211 214 214 216 218 216 214 214 218 219 221 220 225 229 230 232 236 243 252 265 279 296 301 310 324 332 338 345 348 349 348 349 349 351